Location: Newark
(44.4156°N, 12.1972°E)
Time: 07:24:46
(UTC+00:00)

STARLINK-1085 - Pass Details

Date: 31 January 2020
Orbit: 348 x 351 km, 53.0° (Epoch: 22 February)

Event Time Altitude Azimuth Distance (km) Brightness Sun altitude
Rises 18:26:55 0° 295° (WNW) 2,177 7.7 -23.1°
Reaches altitude 10° 18:29:08 10° 281° (WNW) 1,328 6.6 -23.5°
Enters shadow 18:31:16 24° 237° (WSW) 791 5.0 -23.9°
